Find Starlink 1154

NORAD ID: 45198 Int'l Des: 2020-012 Owner: SPXS Country: US Constellation: starlink operational
LEOCIRCULAR

实时位置

正在加载3D地球...

关于 Starlink 1154

正在加载描述...

即将过境

Passes for default location (London). Set your location on the main map for personalized predictions.

高度历史

Loading altitude history...

两行轨道根数

1 45198U 20012W 26126.17198120 .00082743 00000-0 11921-2 0 9998
2 45198 53.0432 93.8240 0002746 21.6631 338.4494 15.55329811344219
Epoch: May 6, 2026 • Age: 10 hours

当前状态

高度 404.2 km
速度 7.67 km/s
星下点 34.59°N, 166.97°E
发射日期 Feb 17, 2020
运行时间 6.2 years
类型 internet

技术详情

分类 Payload
质量 260.00 kg
干质量 248.00 kg
总质量 260.00 kg
长度 0.20 m
直径 2.80 m
跨度 9.00 m
形状 Box + pan
制造商 SPXS
平台类型 Starlink
阶段状态 In Orbit
所有者/国家 SPXS/US

Most Searched